Meath Environmental Platform

Observations for Trim Market St

Time AQI Temp °C Hum % Pres Pa CO μg/m³ H₂S μg/m³ NO μg/m³ NO₂ μg/m³ O₃ μg/m³ SO₂ μg/m³ PM1 μg/m³ PM2.5 μg/m³ PM10 μg/m³
Tuesday 14 July 2026
01:24 1 17.3 68 56,401 0.1 0 0 7.4 28.47 0 0.71 3.12 5.62
01:20 1 17.3 68 56,450 0.1 0 0 6.81 25.54 0 2.14 4.59 6.89
01:19 1 17.3 68 56,467 0.08 0 0 4.21 23.33 0 1.43 3.13 4.98
01:18 1 17.3 68 56,481 0.1 0 0 7.13 26.97 0 2.14 4.11 6.89
01:17 1 17.3 68 56,506 0.08 0 0 5.44 28.39 0 2.14 3.63 5.62
01:14 1 17.3 68 56,532 0.09 0 0 8.15 30.37 0 2.14 4.12 6.89
01:13 1 17.2 68 56,553 0.08 0 0 3.87 22.69 0 2.14 4.12 6.89
01:09 1 17.3 68 56,594 0.09 0 0 5.26 23.97 0 2.85 5.59 10.08
01:03 1 17.3 68 56,698 0.09 0 0 6.59 24.1 0 2.14 3.16 4.97
01:00 1 17.3 68 56,739 0.08 0 0 5.82 23.48 0 2.85 3.17 4.96
00:59 1 17.3 68 56,751 0.08 0 0 5.32 25.11 0 2.85 4.15 6.25
00:58 1 17.3 67 56,752 0.08 0 0.08 4.13 22.65 0 0.71 3.67 5.6
00:57 1 17.4 67 56,769 0.08 0 0 9.3 32.24 0 1.43 3.18 4.96
00:56 1 17.3 67 56,787 0.08 0 0 6.64 23.83 0 2.14 4.16 6.89
00:55 1 17.3 67 56,799 0.09 0 0 6.64 24.47 0 1.43 3.18 4.96
00:54 1 17.3 67 56,812 0.08 0 0 5.94 28.08 0 0.71 2.69 4.32
00:53 1 17.4 67 56,821 0.06 0 0.58 6.22 23.76 0 2.14 3.68 5.6
00:52 1 17.4 67 56,837 0.07 0 0 6.13 25.84 0 2.14 3.19 6.24
00:51 1 17.4 67 56,856 0.07 0 0 6.03 24.36 0 1.43 3.19 5.6
00:50 1 17.4 67 56,878 0.07 0 0 6.95 28 0 1.43 3.2 4.95